sat.trackr.live / text

‹ back to catalog

STARLINK-36544

NORAD 67517 · 2026-012AA

PAYLOAD ACTIVE UNKNOWN

§ Identity

Operator
Country
US
Launch date
2026-01-18
Launch site
AFETR
Launch vehicle
Mass (kg)
RCS (m²)

Purposes: comms

External: N2YO · Heavens-Above · Gunter

§ Orbital elements

Epoch: 2026-05-25T00:04:45.698016Z

Period
94.27 min
Inclination
43.0003°
Eccentricity
0.0001513
Mean motion
15.27589252 rev/d
Perigee alt
482.0 km
Apogee alt
484.1 km
Semi-major
6,861.2 km
B*
5.9679e-4
RAAN
243.3640°
Arg perigee
288.2234°
Mean anomaly
71.8453°
Rev number
1,943

§ Raw data

STARLINK-365441 67517U 26012AA  26145.00330669  .00016201  00000+0  59679-3 0  99902 67517  43.0003 243.3640 0001513 288.2234  71.8453 15.27589252 19430

JSON: /api/v1/satellites/67517 · /tle

For live sub-satellite position, see the globe view (requires WebGL).

§ Visibility from observer

Set your observer location to see the next 7 days of passes ≥ 10°. The values pass through the URL so the page stays shareable.

No JS? Fill the form by hand. The geolocation button needs JavaScript.